FENGYUN 1C DEB, 35240

Orbit data source: Space-Track

FENGYUN 1C DEB, 35240 is space debris in SSO originally from a launch on Mon, 10 May 1999 UTC launched from the Taiyaun Space Center, China (TSC). Fengyun 1C debris stems from the Chinese weather satellite Fengyun-1C, which was intentionally destroyed by a Chinese anti-satellite missile in 2007. This event dramatically increased the amount of space debris, with thousands of trackable fragments posing hazards to satellites and human spaceflight. The Fengyun 1C debris cloud has become a focal point in discussions about space sustainability and the need for international regulations to prevent the creation of new debris.

Loading next visibility...
Identifier
35240, 1999-025DQY
Orbit
SSO
Country
Flag of CNCN / PRC
Related business
Manufacturer
Unknown
Mission
Spacecraft
Bus & Motor
Unknown
Mass
Unknown
Launch date (UTC)
1999-05-10 (27 years ago)
Launch vehicle
Unknown
Launch site
Taiyaun Space Center, China (TSC)
Object type
Payload
Rocket body
Debris
Shape & HBR
Unknown shape, 0.1 m
Radar Cross Section
Small (<0.1 m²)

Expand to show TLE details & history
Last TLE update: 1 day ago

TLE from 1 day ago
0 FENGYUN 1C DEB
1 35240U 99025DQY 26237.41692469  .00002085  00000-0  89958-3 0  9997
2 35240  99.3604 221.3040 0045674 142.6688 217.7678 14.25138181968049
Epoch: 2026-08-25T10:00Z
TLE epoch observation values (Epoch: 2026-08-25T10:00:22.293Z)
Latitude
0.00001°
Longitude
97.52653°
Altitude
836.935 km
Speed
7.421 km/s
True Right ascension
14h 45m 12s
True Declination
0° 00' 00"
Sunlit
Object was in daylight at epoch
Visualization orbit readout
Latitude
Unknown
Longitude
Unknown
Altitude
Unknown
Speed
Unknown
Apparent Right ascension
Unknown
Apparent Declination
Unknown
Sunlit
N/A
Visualization observer readout
Local Sidereal Time
12:02:45
Azimuth
Unknown
Elevation
Unknown
Doppler factor
Unknown
Orbital elements
Apogee altitude
838.021 km
Perigee altitude
772.403 km
Semi-major axis
7,183.349 km
Eccentricity
0.00457
Inclination
99.3604°
RAAN
221.304°
Arg. of periapsis
142.6688°
True anomaly
217.44869°
Mean anomaly
217.7678°
Eccentric anomaly
217.6081°
Mean motion
3.56494 °/min
Orbital period
100.98 mins
BSTAR
0.00089958
Loading maneuver chart data...
Computing Atmospheric mass density...

Documentation

Showing up to 5 results
|